Zurück zum Katalog

STARLINK-30520

AktivKommunikationVLEO
NORAD 58010·PAYLOAD·🇺🇸 United States

Gestartet Oct 5, 2023 von Cape Canaveral Space Force Station

Loading…

Nächste Überflüge (nächste 24 Stunden)

TLE

AktuellSource: CelesTrak SupGP

Epoche: Sep 14, 2026, 20:42 UTC

1 58010C 23153V   26257.86298611  .00031591  00000+0  11444-2 0  2572
2 58010  43.0037  78.6196 0001814 271.8372 272.2046 15.27558137    12

Verfolge STARLINK-30520 in Echtzeit mit AllMySat

Download on the App Store